GW4718 Weather Reports


Display with metric or nautical units.
time (UTC)temp
F
wind
direction
speed
MPH
gust
MPH
rain 1hr
in
rain 24hr
in
rain mn
in
humidity
%
barometer
mb
20260508115330 37 59 0.0 0.0 0.00 0.00 0.00 85 1018.6
20260508114826 37 288 0.0 2.0 0.00 0.00 0.00 87 1018.7
20260508114323 37 308 0.0 0.0 0.00 0.00 0.00 85 1018.7
20260508113820 37 71 1.0 2.0 0.00 0.00 0.00 86 1018.7
20260508113318 37 310 1.0 1.0 0.00 0.00 0.00 86 1018.5
20260508112814 36 68 1.0 1.0 0.00 0.00 0.00 87 1018.7
20260508112312 35 52 2.0 2.0 0.00 0.00 0.00 87 1018.5
20260508111808 35 49 1.0 1.0 0.00 0.00 0.00 89 1018.3
20260508111305 35 150 0.0 0.0 0.00 0.00 0.00 87 1018.6
20260508110802 35 283 1.0 3.0 0.00 0.00 0.00 86 1018.6
20260508110259 35 231 3.0 3.0 0.00 0.00 0.00 87 1018.6
20260508105759 35 239 2.0 3.0 0.00 0.00 0.00 86 1018.5
20260508105256 35 226 2.0 3.0 0.00 0.00 0.00 86 1018.1
20260508104753 35 190 0.0 6.0 0.00 0.00 0.00 86 1018.1
20260508104250 34 174 1.0 2.0 0.00 0.00 0.00 89 1018.1
20260508103747 34 144 0.0 1.0 0.00 0.00 0.00 90 1017.9
20260508103244 34 34 0.0 1.0 0.00 0.00 0.00 90 1018.0
20260508102741 34 248 0.0 0.0 0.00 0.00 0.00 89 1018.1
20260508102239 34 58 1.0 2.0 0.00 0.00 0.00 89 1017.9
20260508101736 34 224 0.0 1.0 0.00 0.00 0.00 88 1017.8
20260508101234 34 185 0.0 2.0 0.00 0.00 0.00 88 1017.7
20260508100731 34 177 2.0 4.0 0.00 0.00 0.00 89 1017.6
20260508100229 34 165 0.0 0.0 0.00 0.00 0.00 89 1017.8
20260508095725 34 331 1.0 1.0 0.00 0.00 0.00 89 1017.7
20260508095223 34 207 0.0 1.0 0.00 0.00 0.00 88 1017.7
20260508094719 35 213 0.0 1.0 0.00 0.00 0.00 88 1017.7
20260508094216 34 232 2.0 2.0 0.00 0.00 0.00 90 1017.8
20260508093713 33 103 0.0 1.0 0.00 0.00 0.00 91 1017.6
20260508093211 33 160 0.0 0.0 0.00 0.00 0.00 91 1017.8
20260508092708 33 93 2.0 2.0 0.00 0.00 0.00 91 1017.7
20260508092206 33 278 0.0 1.0 0.00 0.00 0.00 91 1017.9
20260508091703 33 222 0.0 0.0 0.00 0.00 0.00 90 1018.0
20260508091200 34 220 0.0 0.0 0.00 0.00 0.00 89 1017.8
20260508090658 34 275 0.0 1.0 0.00 0.00 0.00 89 1017.8
20260508090155 33 156 1.0 1.0 0.00 0.00 0.00 91 1017.8
20260508085650 34 85 0.0 1.0 0.00 0.00 0.00 90 1017.6
20260508085149 34 74 0.0 1.0 0.00 0.00 0.00 89 1017.8
20260508084640 34 125 0.0 0.0 0.00 0.00 0.00 88 1017.6
20260508084137 35 133 0.0 0.0 0.00 0.00 0.00 88 1017.5
20260508083634 35 109 2.0 2.0 0.00 0.00 0.00 88 1017.6
20260508083132 34 147 0.0 1.0 0.00 0.00 0.00 89 1017.4
20260508082626 34 133 0.0 1.0 0.00 0.00 0.00 89 1017.4
20260508082124 34 155 0.0 1.0 0.00 0.00 0.00 89 1017.5
20260508081622 34 196 0.0 0.0 0.00 0.00 0.00 89 1017.3
20260508081118 35 215 0.0 2.0 0.00 0.00 0.00 88 1017.4
20260508080615 35 107 0.0 1.0 0.00 0.00 0.00 87 1017.4
20260508080114 35 226 0.0 0.0 0.00 0.00 0.00 87 1017.2
20260508075609 35 145 0.0 1.0 0.00 0.00 0.00 88 1017.3
20260508075107 35 169 0.0 1.0 0.00 0.00 0.00 87 1017.1
20260508074604 35 205 0.0 0.0 0.00 0.00 0.00 87 1017.2
20260508074101 36 93 1.0 1.0 0.00 0.00 0.00 86 1017.3
20260508073559 36 249 2.0 2.0 0.00 0.00 0.00 86 1017.2
20260508073056 35 192 1.0 2.0 0.00 0.00 0.00 87 1017.2
20260508072551 36 84 1.0 1.0 0.00 0.00 0.00 86 1017.1
20260508072049 36 74 1.0 2.0 0.00 0.00 0.00 85 1017.3
20260508071547 37 87 0.0 1.0 0.00 0.00 0.00 84 1017.3
20260508071044 36 192 0.0 1.0 0.00 0.00 0.00 85 1017.3
20260508070542 37 59 2.0 2.0 0.00 0.00 0.00 84 1017.2
20260508070040 37 136 0.0 1.0 0.00 0.00 0.00 83 1017.1
20260508065537 37 121 0.0 0.0 0.00 0.00 0.00 85 1017.3
20260508065035 37 144 0.0 0.0 0.00 0.00 0.00 84 1017.2
20260508064532 37 286 0.0 0.0 0.00 0.00 0.00 82 1017.3
20260508064030 37 197 0.0 2.0 0.00 0.00 0.00 82 1017.1
20260508063527 38 233 1.0 2.0 0.00 0.00 0.00 81 1017.1
20260508063026 38 184 1.0 2.0 0.00 0.00 0.00 81 1017.1
20260508062523 38 104 1.0 2.0 0.00 0.00 0.00 79 1016.9
20260508062019 38 272 0.0 1.0 0.00 0.00 0.00 80 1017.1
20260508061517 39 86 1.0 1.0 0.00 0.00 0.00 79 1017.0
20260508061013 39 213 0.0 0.0 0.00 0.00 0.00 80 1016.8
20260508060510 39 287 1.0 2.0 0.00 0.00 0.00 78 1016.9
20260508060008 40 58 1.0 2.0 0.00 0.00 0.00 75 1016.8
20260508055503 40 284 0.0 3.0 0.00 0.00 0.00 77 1016.8
20260508054959 39 180 0.0 2.0 0.00 0.00 0.00 78 1016.8
20260508054456 40 64 3.0 4.0 0.00 0.00 0.00 77 1016.9
20260508053953 41 115 2.0 2.0 0.00 0.00 0.00 72 1017.1
20260508053450 41 158 2.0 2.0 0.00 0.00 0.00 75 1017.1
20260508052948 40 270 1.0 3.0 0.00 0.00 0.00 75 1017.1
20260508052446 42 258 3.0 3.0 0.00 0.00 0.00 73 1017.0
20260508051942 41 199 2.0 3.0 0.00 0.00 0.00 75 1017.0
20260508051437 41 160 0.0 0.0 0.00 0.00 0.00 74 1017.1
20260508050934 42 75 0.0 3.0 0.00 0.00 0.00 71 1017.3
20260508050431 43 238 0.0 3.0 0.00 0.00 0.00 72 1017.2
20260508045926 42 101 0.0 4.0 0.00 0.00 0.00 72 1017.1
20260508045424 44 258 3.0 4.0 0.00 0.00 0.00 71 1017.0
20260508044922 41 107 4.0 4.0 0.00 0.00 0.00 76 1017.0
20260508044419 42 126 2.0 2.0 0.00 0.00 0.00 69 1017.0
20260508043914 42 84 2.0 4.0 0.00 0.00 0.00 71 1016.9
20260508043412 42 63 0.0 1.0 0.00 0.00 0.00 73 1016.8
20260508042908 42 98 2.0 4.0 0.00 0.00 0.00 64 1016.7
20260508042407 42 81 0.0 2.0 0.00 0.00 0.00 70 1016.8
20260508041903 44 103 0.0 2.0 0.00 0.00 0.00 66 1016.5
20260508041359 45 197 1.0 2.0 0.00 0.00 0.00 68 1016.5
20260508040855 45 51 2.0 3.0 0.00 0.00 0.00 68 1016.2
20260508040353 45 206 0.0 3.0 0.00 0.00 0.00 61 1016.3
20260508035850 48 267 3.0 4.0 0.00 0.00 0.00 57 1016.3
20260508035347 46 72 2.0 2.0 0.00 0.00 0.00 58 1016.1
20260508034844 50 233 2.0 3.0 0.00 0.00 0.00 54 1016.3
20260508034342 49 86 0.0 1.0 0.00 0.00 0.00 50 1016.2
20260508033838 49 151 2.0 3.0 0.00 0.00 0.00 51 1016.2
20260508033336 49 122 2.0 7.0 0.00 0.00 0.00 50 1015.9
20260508032833 49 54 3.0 3.0 0.00 0.00 0.00 50 1016.0
20260508032331 50 254 2.0 4.0 0.00 0.00 0.00 48 1015.9
20260508031828 48 81 3.0 3.0 0.00 0.00 0.00 55 1015.9
20260508031324 48 338 2.0 3.0 0.00 0.00 0.00 52 1016.1
20260508030820 47 78 4.0 6.0 0.00 0.00 0.00 53 1015.8
20260508030318 46 153 0.0 0.0 0.00 0.00 0.00 67 1015.8
20260508025814 46 109 1.0 2.0 0.00 0.00 0.00 65 1015.8
20260508025312 48 50 2.0 2.0 0.00 0.00 0.00 64 1015.7
20260508024808 46 199 3.0 8.0 0.00 0.00 0.00 52 1015.5
20260508024304 47 103 0.0 2.0 0.00 0.00 0.00 59 1015.4
20260508023801 49 113 1.0 1.0 0.00 0.00 0.00 59 1015.6
20260508023258 51 252 0.0 1.0 0.00 0.00 0.00 54 1015.3
20260508022754 49 133 2.0 9.0 0.00 0.00 0.00 49 1015.4
20260508022251 49 83 2.0 3.0 0.00 0.00 0.00 55 1015.4
20260508021748 49 141 0.0 1.0 0.00 0.00 0.00 59 1015.3
20260508021243 50 174 3.0 6.0 0.00 0.00 0.00 55 1015.3
20260508020740 50 188 1.0 8.0 0.00 0.00 0.00 54 1015.1
20260508020238 51 119 0.0 1.0 0.00 0.00 0.00 52 1015.3
20260508015735 51 164 6.0 7.0 0.00 0.00 0.00 50 1015.0
20260508015232 52 232 1.0 2.0 0.00 0.00 0.00 52 1015.2
20260508014729 51 63 1.0 1.0 0.00 0.00 0.00 55 1015.1
20260508014226 51 166 2.0 3.0 0.00 0.00 0.00 52 1015.1
20260508013721 53 196 1.0 3.0 0.00 0.00 0.00 53 1014.8
20260508013218 50 86 12.0 14.0 0.00 0.00 0.00 51 1014.8
20260508012716 51 91 2.0 2.0 0.00 0.00 0.00 58 1014.7
20260508012212 53 267 2.0 4.0 0.00 0.00 0.00 49 1014.5
20260508011711 52 205 0.0 6.0 0.00 0.00 0.00 54 1014.5
20260508011208 52 249 0.0 3.0 0.00 0.00 0.00 54 1014.4
20260508010704 53 105 3.0 6.0 0.00 0.00 0.00 52 1014.3
20260508010202 53 166 2.0 3.0 0.00 0.00 0.00 52 1014.3
20260508005659 51 150 0.0 1.0 0.00 0.00 0.00 54 1014.3
20260508005156 51 95 1.0 2.0 0.00 0.00 0.00 53 1014.1
20260508004651 53 245 1.0 3.0 0.00 0.00 0.00 51 1014.1
20260508004148 53 263 4.0 7.0 0.00 0.00 0.00 47 1014.0
20260508003645 53 232 2.0 4.0 0.00 0.00 0.00 52 1014.0
20260508003137 53 183 4.0 8.0 0.00 0.00 0.00 50 1014.0
20260508002633 52 190 5.0 11.0 0.00 0.00 0.00 50 1013.8
20260508002131 54 54 0.0 1.0 0.00 0.00 0.00 53 1014.0
20260508001625 54 175 4.0 7.0 0.00 0.00 0.00 50 1013.9
20260508001122 53 237 4.0 7.0 0.00 0.00 0.00 48 1013.8
20260508000617 53 93 0.0 0.0 0.00 0.00 0.00 58 1014.0
20260508000115 55 38 0.0 2.0 0.00 0.00 0.00 47 1013.7
20260507235612 55 186 2.0 3.0 0.00 0.00 0.00 47 1013.6
20260507235109 55 183 3.0 6.0 0.00 0.00 0.00 50 1013.4
20260507234606 55 307 2.0 11.0 0.00 0.00 0.00 47 1013.4
20260507234102 55 207 2.0 3.0 0.00 0.00 0.00 48 1013.7
20260507233559 55 209 9.0 13.0 0.00 0.00 0.00 47 1013.0
20260507233058 55 169 3.0 3.0 0.00 0.00 0.00 47 1013.4
20260507232553 56 220 0.0 2.0 0.00 0.00 0.00 47 1013.0
20260507232051 56 63 2.0 3.0 0.00 0.00 0.00 46 1013.0
20260507231547 56 323 0.0 3.0 0.00 0.00 0.00 46 1013.2
20260507231045 56 114 3.0 4.0 0.00 0.00 0.00 46 1013.3
20260507230541 56 95 2.0 2.0 0.00 0.00 0.00 46 1013.0
20260507230038 56 211 0.0 1.0 0.00 0.00 0.00 48 1012.9
20260507225533 57 179 1.0 1.0 0.00 0.00 0.00 45 1012.9
20260507225029 57 331 2.0 2.0 0.00 0.00 0.00 44 1012.9
20260507224525 57 104 2.0 3.0 0.00 0.00 0.00 44 1012.9
20260507224022 57 257 2.0 3.0 0.00 0.00 0.00 43 1013.0
20260507223518 58 247 3.0 4.0 0.00 0.00 0.00 46 1012.9
20260507223016 59 191 1.0 2.0 0.00 0.00 0.00 46 1012.6
20260507222513 59 295 2.0 2.0 0.00 0.00 0.00 45 1012.8
20260507222008 61 220 3.0 4.0 0.00 0.00 0.00 43 1012.7
20260507221505 61 279 1.0 2.0 0.00 0.00 0.00 42 1012.5
20260507221002 60 46 2.0 9.0 0.00 0.00 0.00 43 1012.4
20260507220459 58 23 2.0 6.0 0.00 0.00 0.00 46 1012.5
20260507215956 60 203 4.0 6.0 0.00 0.00 0.00 43 1012.3
20260507215452 60 222 2.0 9.0 0.00 0.00 0.00 43 1012.5
20260507214950 63 250 3.0 3.0 0.00 0.00 0.00 43 1012.3
20260507214447 62 241 3.0 6.0 0.00 0.00 0.00 43 1011.9
20260507213943 62 178 6.0 13.0 0.00 0.00 0.00 40 1012.0
20260507213440 62 210 0.0 3.0 0.00 0.00 0.00 44 1011.9
20260507212938 61 133 5.0 9.0 0.00 0.00 0.00 40 1011.8
20260507212433 62 214 2.0 3.0 0.00 0.00 0.00 40 1012.0
20260507211930 62 340 3.0 7.0 0.00 0.00 0.00 40 1012.1
20260507211426 61 284 1.0 3.0 0.00 0.00 0.00 44 1011.9
20260507210923 61 279 3.0 6.0 0.00 0.00 0.00 45 1011.8
20260507210420 60 244 5.0 7.0 0.00 0.00 0.00 45 1011.8
20260507205917 61 286 2.0 4.0 0.00 0.00 0.00 47 1011.7
20260507205414 62 147 4.0 7.0 0.00 0.00 0.00 43 1011.5
20260507204910 62 194 7.0 10.0 0.00 0.00 0.00 45 1011.6
20260507204406 61 219 7.0 10.0 0.00 0.00 0.00 45 1012.0
20260507203904 62 273 5.0 9.0 0.00 0.00 0.00 48 1011.9
20260507203402 62 241 2.0 3.0 0.00 0.00 0.00 44 1012.0
20260507202858 62 292 3.0 7.0 0.00 0.00 0.00 41 1012.0
20260507202354 62 195 5.0 15.0 0.00 0.00 0.00 45 1011.9
20260507201850 63 335 2.0 11.0 0.00 0.00 0.00 45 1012.0
20260507201346 62 193 8.0 11.0 0.00 0.00 0.00 44 1012.1
20260507200842 60 212 5.0 11.0 0.00 0.00 0.00 49 1011.8
20260507200338 59 138 10.0 19.0 0.00 0.00 0.00 48 1011.9
20260507195835 61 316 4.0 6.0 0.00 0.00 0.00 46 1011.9
20260507195332 61 356 5.0 11.0 0.00 0.00 0.00 45 1012.0
20260507194829 62 217 1.0 4.0 0.00 0.00 0.00 49 1012.2
20260507194325 61 231 4.0 8.0 0.00 0.00 0.00 48 1012.3
20260507193822 62 229 6.0 9.0 0.00 0.00 0.00 48 1011.7
20260507193320 63 203 4.0 8.0 0.00 0.00 0.00 43 1012.0
20260507192814 62 175 4.0 6.0 0.00 0.00 0.00 46 1012.0
20260507192312 62 263 4.0 9.0 0.00 0.00 0.00 46 1012.0
20260507191808 62 169 5.0 9.0 0.00 0.00 0.00 48 1012.0
20260507191304 62 256 3.0 7.0 0.00 0.00 0.00 45 1012.1
20260507190802 62 333 2.0 2.0 0.00 0.00 0.00 46 1012.3
20260507190300 62 250 2.0 3.0 0.00 0.00 0.00 47 1012.5
20260507185758 61 276 3.0 4.0 0.00 0.00 0.00 48 1012.6
20260507185254 62 234 6.0 10.0 0.00 0.00 0.00 48 1012.3
20260507184752 63 212 6.0 8.0 0.00 0.00 0.00 47 1012.4
20260507184250 63 233 4.0 6.0 0.00 0.00 0.00 50 1012.2
20260507183747 62 213 5.0 8.0 0.00 0.00 0.00 52 1012.2
20260507183244 63 173 3.0 8.0 0.00 0.00 0.00 50 1012.2
20260507182742 62 129 4.0 10.0 0.00 0.00 0.00 45 1012.2
20260507182241 62 188 4.0 8.0 0.00 0.00 0.00 48 1012.1
20260507181739 61 302 3.0 4.0 0.00 0.00 0.00 52 1012.4
20260507181235 63 253 5.0 10.0 0.00 0.00 0.00 51 1012.2
20260507180732 62 260 0.0 7.0 0.00 0.00 0.00 48 1012.3
20260507180229 62 324 3.0 6.0 0.00 0.00 0.00 48 1012.1
20260507175724 61 310 3.0 6.0 0.00 0.00 0.00 53 1012.2
20260507175221 61 11 1.0 7.0 0.00 0.00 0.00 52 1012.5
20260507174719 61 206 3.0 10.0 0.00 0.00 0.00 51 1012.5
20260507174217 60 53 0.0 7.0 0.00 0.00 0.00 50 1012.7
20260507173715 60 69 5.0 7.0 0.00 0.00 0.00 52 1012.7
20260507173211 59 270 5.0 7.0 0.00 0.00 0.00 56 1012.8
20260507172708 59 156 2.0 11.0 0.00 0.00 0.00 55 1013.0
20260507172204 58 226 6.0 8.0 0.00 0.00 0.00 56 1013.0
20260507171704 57 259 7.0 9.0 0.00 0.00 0.00 60 1013.2
20260507171202 58 69 12.0 15.0 0.00 0.00 0.00 59 1013.0
20260507170659 58 270 4.0 4.0 0.00 0.00 0.00 61 1013.3
20260507170156 57 281 0.0 4.0 0.00 0.00 0.00 60 1013.3
20260507165651 57 46 3.0 7.0 0.00 0.00 0.00 63 1013.4
20260507165148 57 166 4.0 6.0 0.00 0.00 0.00 59 1013.3
20260507164644 57 52 4.0 9.0 0.00 0.00 0.00 60 1013.3
20260507164141 58 203 6.0 8.0 0.00 0.00 0.00 60 1013.6
20260507163638 56 264 2.0 9.0 0.00 0.00 0.00 59 1013.5
20260507163136 56 183 4.0 11.0 0.00 0.00 0.00 60 1013.8
20260507162632 57 105 8.0 9.0 0.00 0.00 0.00 61 1013.8
20260507162128 57 292 5.0 7.0 0.00 0.00 0.00 59 1013.7
20260507161624 57 261 2.0 3.0 0.00 0.00 0.00 65 1013.8
20260507161121 58 186 4.0 7.0 0.00 0.00 0.00 61 1013.9
20260507160618 58 287 1.0 6.0 0.00 0.00 0.00 57 1013.8
20260507160114 58 200 1.0 4.0 0.00 0.00 0.00 62 1014.0
20260507155609 58 163 3.0 3.0 0.00 0.00 0.00 63 1014.0
20260507155107 56 286 1.0 1.0 0.00 0.00 0.00 60 1014.1
20260507154603 57 193 3.0 9.0 0.00 0.00 0.00 64 1014.3
20260507154100 57 214 0.0 2.0 0.00 0.00 0.00 61 1014.1
20260507153557 58 246 3.0 8.0 0.00 0.00 0.00 63 1014.4
20260507153053 56 255 1.0 3.0 0.00 0.00 0.00 62 1014.4
20260507152550 56 312 4.0 4.0 0.00 0.00 0.00 62 1014.4
20260507152046 56 315 4.0 4.0 0.00 0.00 0.00 61 1014.3
20260507151542 56 284 4.0 4.0 0.00 0.00 0.00 63 1014.4
20260507151039 55 120 0.0 4.0 0.00 0.00 0.00 62 1014.4
20260507150536 54 7 1.0 2.0 0.00 0.00 0.00 63 1014.5
20260507150033 54 40 1.0 2.0 0.00 0.00 0.00 64 1014.6
20260507145528 55 22 1.0 3.0 0.00 0.00 0.00 61 1014.4
20260507145026 54 58 1.0 3.0 0.00 0.00 0.00 65 1014.7
20260507144522 55 32 0.0 3.0 0.00 0.00 0.00 64 1014.6
20260507144020 54 51 1.0 2.0 0.00 0.00 0.00 66 1014.6
20260507143517 54 54 2.0 3.0 0.00 0.00 0.00 63 1014.7
20260507143014 55 81 2.0 3.0 0.00 0.00 0.00 59 1015.0
20260507142509 54 246 1.0 3.0 0.00 0.00 0.00 63 1014.8
20260507142007 53 255 2.0 2.0 0.00 0.00 0.00 61 1015.0
20260507141502 52 131 1.0 2.0 0.00 0.00 0.00 67 1015.2
20260507140959 52 102 2.0 3.0 0.00 0.00 0.00 66 1015.4
20260507140456 52 87 0.0 1.0 0.00 0.00 0.00 65 1015.4
20260507135953 52 4 2.0 6.0 0.00 0.00 0.00 67 1015.2
20260507135450 52 323 1.0 4.0 0.00 0.00 0.00 66 1015.4
20260507134947 51 23 1.0 2.0 0.00 0.00 0.00 66 1015.4
20260507134443 51 34 1.0 2.0 0.00 0.00 0.00 66 1015.4
20260507133935 51 129 0.0 0.0 0.00 0.00 0.00 65 1015.5
20260507133431 51 135 0.0 0.0 0.00 0.00 0.00 66 1015.7
20260507132929 51 188 0.0 2.0 0.00 0.00 0.00 69 1015.8
20260507132424 50 233 2.0 3.0 0.00 0.00 0.00 66 1015.6
20260507131921 50 208 1.0 2.0 0.00 0.00 0.00 67 1015.8
20260507131418 50 95 1.0 3.0 0.00 0.00 0.00 65 1015.7
20260507130915 50 56 2.0 4.0 0.00 0.00 0.00 66 1015.7
20260507130412 50 307 0.0 0.0 0.00 0.00 0.00 68 1015.9
20260507125911 50 170 0.0 3.0 0.00 0.00 0.00 67 1015.8
20260507125409 49 71 11.0 13.0 0.00 0.00 0.00 67 1015.9
20260507124906 49 214 3.0 4.0 0.00 0.00 0.00 71 1015.9
20260507124401 50 184 2.0 3.0 0.00 0.00 0.00 74 1015.8
20260507123900 49 127 0.0 2.0 0.00 0.00 0.00 75 1015.7
20260507123357 49 241 1.0 3.0 0.00 0.00 0.00 77 1015.9
20260507122853 50 254 2.0 6.0 0.00 0.00 0.00 76 1015.8
20260507122349 50 82 0.0 2.0 0.00 0.00 0.00 77 1015.5
20260507121845 50 172 3.0 3.0 0.00 0.00 0.00 80 1016.0
20260507121340 50 279 3.0 3.0 0.00 0.00 0.00 79 1015.4
20260507120838 50 195 0.0 2.0 0.00 0.00 0.00 82 1015.7
20260507120334 50 308 2.0 4.0 0.00 0.00 0.00 80 1015.6
20260507115830 50 279 1.0 2.0 0.00 0.00 0.00 80 1015.6